AGN143 FNLU-FOOL

Flight info

Callsign AGN143
Flight time 1h 32m
Altitude 38000
Route EXITO UR526 PILVI PILVI2L
Aircraft B762/H-SDE3FGHIM3RWXY/LB1

Departure

Time 2026-05-01 11:43
Airport Quatro de Fevereiro International Airport (FNLU)

Arrival

Time 2026-05-01 13:15
Airport Libreville Leon M'ba International Airport (FOOL)
Time Latitude Longitude Altitude Speed Heading
2026-05-01 11:19 -8.85095 13.23327 247 ft 0 kts 156°
2026-05-01 11:31 -8.85089 13.23325 247 ft 2 kts 156°
2026-05-01 11:31 -8.85076 13.23319 247 ft 2 kts 156°
2026-05-01 11:32 -8.85062 13.23312 247 ft 2 kts 156°
2026-05-01 11:32 -8.85048 13.23306 247 ft 2 kts 156°
2026-05-01 11:32 -8.85038 13.23302 247 ft 2 kts 156°
2026-05-01 11:32 -8.85031 13.23299 247 ft 1 kts 156°
2026-05-01 11:33 -8.85019 13.23290 247 ft 2 kts 117°
2026-05-01 11:33 -8.85016 13.23276 248 ft 2 kts 80°
2026-05-01 11:33 -8.85021 13.23264 248 ft 2 kts 40°
2026-05-01 11:33 -8.85033 13.23254 248 ft 2 kts 44°
2026-05-01 11:34 -8.85043 13.23243 248 ft 2 kts 62°
2026-05-01 11:34 -8.85046 13.23236 248 ft 0 kts 70°
2026-05-01 11:37 -8.85029 13.23259 248 ft 9 kts 50°
2026-05-01 11:38 -8.84989 13.23338 247 ft 15 kts 67°
2026-05-01 11:38 -8.84946 13.23441 246 ft 15 kts 67°
2026-05-01 11:38 -8.84965 13.23503 244 ft 9 kts 156°
2026-05-01 11:38 -8.85011 13.23524 243 ft 7 kts 154°
2026-05-01 11:39 -8.85059 13.23546 243 ft 7 kts 160°
2026-05-01 11:39 -8.85107 13.23566 242 ft 7 kts 153°
2026-05-01 11:39 -8.85152 13.23595 242 ft 7 kts 143°
2026-05-01 11:39 -8.85191 13.23632 241 ft 7 kts 135°
2026-05-01 11:40 -8.85230 13.23668 241 ft 7 kts 137°
2026-05-01 11:40 -8.85275 13.23708 239 ft 9 kts 139°
2026-05-01 11:40 -8.85324 13.23754 237 ft 10 kts 137°
2026-05-01 11:40 -8.85380 13.23804 236 ft 10 kts 143°
2026-05-01 11:41 -8.85429 13.23792 236 ft 1 kts 226°
2026-05-01 11:41 -8.85432 13.23789 236 ft 0 kts 226°
2026-05-01 11:41 -8.85465 13.23755 237 ft 24 kts 225°
2026-05-01 11:42 -8.85700 13.23503 241 ft 74 kts 227°
2026-05-01 11:42 -8.86177 13.22999 247 ft 123 kts 227°
2026-05-01 11:42 -8.86870 13.22251 352 ft 159 kts 226°
2026-05-01 11:42 -8.87649 13.21377 727 ft 177 kts 226°
2026-05-01 11:43 -8.88491 13.20409 1279 ft 187 kts 230°
2026-05-01 11:43 -8.89376 13.19387 1710 ft 201 kts 226°
2026-05-01 11:43 -8.90361 13.18306 2125 ft 216 kts 226°
2026-05-01 11:44 -8.92599 13.15899 3110 ft 251 kts 221°
2026-05-01 11:44 -8.94017 13.14755 3654 ft 268 kts 221°
2026-05-01 11:44 -8.95078 13.13195 4342 ft 279 kts 251°
2026-05-01 11:44 -8.95270 13.11254 5275 ft 278 kts 280°
2026-05-01 11:45 -8.94549 13.09478 6137 ft 277 kts 308°
2026-05-01 11:45 -8.93089 13.08246 6956 ft 278 kts 335°
2026-05-01 11:45 -8.91258 13.07602 7730 ft 282 kts 343°
2026-05-01 11:45 -8.89378 13.06994 8565 ft 286 kts 343°
2026-05-01 11:46 -8.87465 13.06402 9360 ft 291 kts 343°
2026-05-01 11:46 -8.85525 13.05796 10197 ft 294 kts 343°
2026-05-01 11:46 -8.83528 13.05170 10764 ft 309 kts 343°
2026-05-01 11:46 -8.81416 13.04508 11206 ft 327 kts 344°
2026-05-01 11:47 -8.79178 13.03806 11631 ft 344 kts 344°
2026-05-01 11:47 -8.76836 13.03070 12345 ft 351 kts 344°
2026-05-01 11:47 -8.74468 13.02326 13118 ft 355 kts 344°
2026-05-01 11:47 -8.72099 13.01582 13850 ft 359 kts 344°
2026-05-01 11:48 -8.69703 13.00829 14539 ft 364 kts 344°
2026-05-01 11:48 -8.67267 13.00063 15204 ft 368 kts 344°
2026-05-01 11:48 -8.64776 12.99282 15829 ft 373 kts 345°
2026-05-01 11:48 -8.62300 12.98505 16435 ft 378 kts 345°
2026-05-01 11:49 -8.59784 12.97714 17116 ft 381 kts 345°
2026-05-01 11:49 -8.57211 12.96908 17744 ft 386 kts 345°
2026-05-01 11:49 -8.54650 12.96105 18365 ft 390 kts 344°
2026-05-01 11:49 -8.52030 12.95282 18996 ft 394 kts 344°
2026-05-01 11:50 -8.49403 12.94458 19623 ft 398 kts 344°
2026-05-01 11:50 -8.46709 12.93613 20226 ft 403 kts 344°
2026-05-01 11:50 -8.44037 12.92775 20815 ft 407 kts 343°
2026-05-01 11:50 -8.41299 12.91916 21379 ft 412 kts 343°
2026-05-01 11:51 -8.38541 12.91051 21952 ft 416 kts 343°
2026-05-01 11:51 -8.35746 12.90175 22528 ft 420 kts 343°
2026-05-01 11:51 -8.32928 12.89291 23052 ft 426 kts 343°
2026-05-01 11:51 -8.30095 12.88403 23697 ft 429 kts 343°
2026-05-01 11:52 -8.27236 12.87507 24320 ft 432 kts 343°
2026-05-01 11:52 -8.24339 12.86599 24843 ft 438 kts 343°
2026-05-01 11:52 -8.21404 12.85679 25450 ft 442 kts 343°
2026-05-01 11:52 -8.18465 12.84759 25941 ft 448 kts 343°
2026-05-01 11:53 -8.15448 12.83814 26539 ft 451 kts 343°
2026-05-01 11:53 -8.12437 12.82871 27047 ft 457 kts 343°
2026-05-01 11:53 -8.09388 12.81916 27629 ft 461 kts 343°
2026-05-01 11:53 -8.06316 12.80955 28142 ft 465 kts 343°
2026-05-01 11:54 -8.03204 12.79981 28663 ft 470 kts 342°
2026-05-01 11:54 -8.00059 12.78997 29245 ft 472 kts 343°
2026-05-01 11:54 -7.96887 12.78003 29731 ft 476 kts 343°
2026-05-01 11:54 -7.93745 12.77021 30272 ft 478 kts 343°
2026-05-01 11:55 -7.90532 12.76016 30808 ft 479 kts 343°
2026-05-01 11:55 -7.87325 12.75013 31524 ft 476 kts 343°
2026-05-01 11:55 -7.84190 12.74031 32113 ft 475 kts 343°
2026-05-01 11:55 -7.81006 12.73036 32770 ft 473 kts 343°
2026-05-01 11:56 -7.77884 12.72060 33334 ft 473 kts 343°
2026-05-01 11:56 -7.74732 12.71074 33975 ft 472 kts 343°
2026-05-01 11:56 -7.71587 12.70091 34554 ft 471 kts 344°
2026-05-01 11:56 -7.68441 12.69108 35185 ft 468 kts 344°
2026-05-01 11:57 -7.65312 12.68130 35626 ft 469 kts 344°
2026-05-01 11:57 -7.62193 12.67156 36122 ft 468 kts 344°
2026-05-01 11:57 -7.59082 12.66184 36503 ft 468 kts 344°
2026-05-01 11:57 -7.55957 12.65209 36963 ft 467 kts 344°
2026-05-01 11:58 -7.52838 12.64235 37362 ft 467 kts 344°
2026-05-01 11:58 -7.49722 12.63262 37725 ft 466 kts 344°
2026-05-01 11:58 -7.43559 12.61338 37897 ft 465 kts 344°
2026-05-01 11:59 -7.40480 12.60377 37899 ft 464 kts 344°
2026-05-01 11:59 -7.34298 12.58449 37901 ft 463 kts 344°
2026-05-01 12:00 -7.25007 12.55551 37894 ft 463 kts 345°
2026-05-01 12:01 -7.15774 12.52673 37889 ft 464 kts 344°
2026-05-01 12:01 -7.09605 12.50750 37891 ft 463 kts 344°
2026-05-01 12:02 -7.03437 12.48828 37888 ft 463 kts 344°
2026-05-01 12:02 -6.97323 12.46736 37888 ft 464 kts 339°
2026-05-01 12:03 -6.91311 12.44255 37896 ft 465 kts 339°
2026-05-01 12:03 -6.85306 12.41771 37898 ft 464 kts 339°
2026-05-01 12:04 -6.79302 12.39283 37896 ft 465 kts 339°
2026-05-01 12:04 -6.73304 12.36798 37896 ft 465 kts 339°
2026-05-01 12:05 -6.67337 12.34325 37894 ft 465 kts 339°
2026-05-01 12:05 -6.58311 12.30585 37890 ft 466 kts 339°
2026-05-01 12:06 -6.52344 12.28114 37896 ft 465 kts 339°
2026-05-01 12:06 -6.46326 12.25622 37897 ft 465 kts 339°
2026-05-01 12:07 -6.40354 12.23150 37894 ft 466 kts 339°
2026-05-01 12:07 -6.34322 12.20653 37886 ft 466 kts 339°
2026-05-01 12:08 -6.28317 12.18168 37881 ft 465 kts 339°
2026-05-01 12:08 -6.22357 12.15704 37876 ft 465 kts 339°
2026-05-01 12:09 -6.16352 12.13220 37880 ft 466 kts 339°
2026-05-01 12:09 -6.10334 12.10732 37883 ft 466 kts 339°
2026-05-01 12:10 -6.01296 12.06998 37880 ft 468 kts 339°
2026-05-01 12:11 -5.92276 12.03270 37887 ft 468 kts 339°
2026-05-01 12:11 -5.86241 12.00777 37884 ft 466 kts 339°
2026-05-01 12:12 -5.80271 11.98311 37885 ft 465 kts 339°
2026-05-01 12:12 -5.74246 11.95823 37893 ft 466 kts 339°
2026-05-01 12:13 -5.68229 11.93340 37893 ft 467 kts 339°
2026-05-01 12:13 -5.62238 11.90868 37888 ft 466 kts 339°
2026-05-01 12:14 -5.56213 11.88382 37888 ft 465 kts 339°
2026-05-01 12:14 -5.50226 11.85912 37890 ft 465 kts 339°
2026-05-01 12:15 -5.44242 11.83444 37887 ft 465 kts 339°
2026-05-01 12:15 -5.38244 11.80971 37890 ft 466 kts 339°
2026-05-01 12:16 -5.32233 11.78492 37888 ft 464 kts 339°
2026-05-01 12:16 -5.26264 11.76033 37891 ft 464 kts 339°
2026-05-01 12:17 -5.20257 11.73559 37892 ft 465 kts 339°
2026-05-01 12:17 -5.14257 11.71086 37891 ft 464 kts 339°
2026-05-01 12:18 -5.08275 11.68617 37897 ft 464 kts 339°
2026-05-01 12:18 -5.02292 11.66146 37895 ft 464 kts 339°
2026-05-01 12:19 -4.96320 11.63680 37902 ft 465 kts 339°
2026-05-01 12:19 -4.90303 11.61196 37904 ft 465 kts 339°
2026-05-01 12:20 -4.84307 11.58722 37901 ft 464 kts 339°
2026-05-01 12:20 -4.78333 11.56255 37898 ft 464 kts 339°
2026-05-01 12:21 -4.72337 11.53781 37896 ft 464 kts 339°
2026-05-01 12:21 -4.66343 11.51309 37896 ft 465 kts 339°
2026-05-01 12:22 -4.60351 11.48838 37898 ft 465 kts 339°
2026-05-01 12:22 -4.54375 11.46373 37896 ft 465 kts 339°
2026-05-01 12:23 -4.48342 11.43886 37895 ft 466 kts 339°
2026-05-01 12:23 -4.42369 11.41423 37889 ft 465 kts 339°
2026-05-01 12:24 -4.36362 11.38947 37880 ft 466 kts 339°
2026-05-01 12:24 -4.30332 11.36463 37879 ft 464 kts 339°
2026-05-01 12:25 -4.21362 11.32767 37877 ft 464 kts 339°
2026-05-01 12:26 -4.15377 11.30302 37884 ft 466 kts 339°
2026-05-01 12:26 -4.06376 11.26595 37889 ft 466 kts 339°
2026-05-01 12:27 -3.97349 11.22878 37885 ft 465 kts 339°
2026-05-01 12:28 -3.88360 11.19178 37892 ft 464 kts 339°
2026-05-01 12:29 -3.79410 11.15493 37900 ft 464 kts 339°
2026-05-01 12:29 -3.70449 11.11806 37906 ft 464 kts 339°
2026-05-01 12:30 -3.61435 11.08098 37905 ft 464 kts 339°
2026-05-01 12:31 -3.55493 11.05654 37918 ft 463 kts 339°
2026-05-01 12:31 -3.49482 11.03182 37923 ft 464 kts 339°
2026-05-01 12:32 -3.43528 11.00734 37930 ft 462 kts 339°
2026-05-01 12:32 -3.34596 10.97061 37944 ft 462 kts 339°
2026-05-01 12:33 -3.28632 10.94609 37948 ft 461 kts 340°
2026-05-01 12:33 -3.22698 10.92171 37953 ft 461 kts 339°
2026-05-01 12:34 -3.16774 10.89736 37946 ft 461 kts 340°
2026-05-01 12:34 -3.10828 10.87293 37936 ft 461 kts 339°
2026-05-01 12:35 -3.04888 10.84853 37931 ft 462 kts 340°
2026-05-01 12:35 -2.98945 10.82410 37933 ft 461 kts 340°
2026-05-01 12:36 -2.93013 10.79974 37929 ft 461 kts 340°
2026-05-01 12:36 -2.87037 10.77519 37913 ft 461 kts 340°
2026-05-01 12:37 -2.81097 10.75079 37900 ft 460 kts 340°
2026-05-01 12:37 -2.75143 10.72635 37888 ft 461 kts 340°
2026-05-01 12:38 -2.69196 10.70192 37885 ft 461 kts 340°
2026-05-01 12:38 -2.63263 10.67756 37894 ft 462 kts 340°
2026-05-01 12:39 -2.57306 10.65310 37894 ft 462 kts 340°
2026-05-01 12:39 -2.51354 10.62867 37889 ft 462 kts 340°
2026-05-01 12:40 -2.45394 10.60421 37892 ft 462 kts 340°
2026-05-01 12:40 -2.39467 10.57989 37888 ft 461 kts 340°
2026-05-01 12:41 -2.33495 10.55537 37887 ft 461 kts 340°
2026-05-01 12:41 -2.27569 10.53106 37894 ft 462 kts 340°
2026-05-01 12:42 -2.21616 10.50663 37892 ft 461 kts 340°
2026-05-01 12:42 -2.15663 10.48220 37900 ft 461 kts 340°
2026-05-01 12:43 -2.09698 10.45774 37908 ft 461 kts 340°
2026-05-01 12:43 -2.03754 10.43337 37912 ft 460 kts 340°
2026-05-01 12:44 -1.97797 10.40897 37914 ft 462 kts 340°
2026-05-01 12:45 -1.85908 10.36037 37912 ft 461 kts 342°
2026-05-01 12:45 -1.79692 10.34416 37904 ft 457 kts 351°
2026-05-01 12:46 -1.73494 10.33067 37901 ft 456 kts 351°
2026-05-01 12:46 -1.67296 10.31735 37902 ft 456 kts 351°
2026-05-01 12:47 -1.61057 10.30400 37896 ft 456 kts 351°
2026-05-01 12:47 -1.54805 10.29065 37894 ft 456 kts 351°
2026-05-01 12:48 -1.48610 10.27742 37896 ft 457 kts 351°
2026-05-01 12:48 -1.42353 10.26407 37896 ft 457 kts 351°
2026-05-01 12:49 -1.36125 10.25078 37895 ft 457 kts 351°
2026-05-01 12:49 -1.29911 10.23753 37892 ft 457 kts 351°
2026-05-01 12:50 -1.23651 10.22417 37890 ft 458 kts 351°
2026-05-01 12:50 -1.17447 10.20903 37879 ft 461 kts 342°
2026-05-01 12:51 -1.11516 10.18392 37881 ft 462 kts 339°
2026-05-01 12:52 -1.02663 10.14529 37873 ft 463 kts 339°
2026-05-01 12:52 -0.96731 10.11927 37121 ft 468 kts 339°
2026-05-01 12:52 -0.93757 10.10619 36464 ft 459 kts 339°
2026-05-01 12:53 -0.87998 10.08085 35210 ft 444 kts 339°
2026-05-01 12:53 -0.85160 10.06838 34616 ft 445 kts 339°
2026-05-01 12:53 -0.82303 10.05584 34043 ft 454 kts 339°
2026-05-01 12:54 -0.79397 10.04308 33464 ft 459 kts 339°
2026-05-01 12:54 -0.73529 10.01728 32325 ft 459 kts 339°
2026-05-01 12:54 -0.70607 10.00444 31800 ft 459 kts 339°
2026-05-01 12:55 -0.64761 9.97875 30750 ft 461 kts 338°
2026-05-01 12:55 -0.61806 9.96576 30218 ft 462 kts 338°
2026-05-01 12:55 -0.58845 9.95274 29677 ft 459 kts 338°
2026-05-01 12:56 -0.55966 9.94008 29160 ft 453 kts 338°
2026-05-01 12:56 -0.53102 9.92749 28625 ft 447 kts 338°
2026-05-01 12:56 -0.50257 9.91498 28114 ft 442 kts 338°
2026-05-01 12:56 -0.47432 9.90256 27600 ft 438 kts 338°
2026-05-01 12:57 -0.44666 9.89040 27096 ft 435 kts 338°
2026-05-01 12:57 -0.39171 9.86625 26070 ft 429 kts 338°
2026-05-01 12:57 -0.36414 9.85413 25550 ft 426 kts 338°
2026-05-01 12:58 -0.33737 9.84237 25039 ft 422 kts 338°
2026-05-01 12:58 -0.31045 9.83053 24521 ft 418 kts 338°
2026-05-01 12:58 -0.28394 9.81888 24010 ft 415 kts 338°
2026-05-01 12:59 -0.23138 9.79577 22981 ft 407 kts 338°
2026-05-01 12:59 -0.20575 9.78451 22478 ft 403 kts 338°
2026-05-01 12:59 -0.15474 9.76209 21470 ft 397 kts 338°
2026-05-01 13:00 -0.10401 9.74056 20479 ft 391 kts 341°
2026-05-01 13:00 -0.07859 9.73092 20021 ft 388 kts 340°
2026-05-01 13:01 -0.02834 9.71169 19081 ft 384 kts 340°
2026-05-01 13:01 -0.00339 9.70213 18622 ft 382 kts 340°
2026-05-01 13:01 0.04597 9.68320 17686 ft 377 kts 340°
2026-05-01 13:02 0.07044 9.67382 17225 ft 375 kts 340°
2026-05-01 13:07 0.51409 9.48417 8110 ft 272 kts 342°
2026-05-01 13:07 0.53155 9.47709 7529 ft 271 kts 341°
2026-05-01 13:07 0.54899 9.46994 6968 ft 269 kts 340°
2026-05-01 13:08 0.56616 9.46285 6425 ft 267 kts 340°
2026-05-01 13:08 0.58337 9.45574 5852 ft 266 kts 339°
2026-05-01 13:08 0.60044 9.44867 5370 ft 260 kts 339°
2026-05-01 13:08 0.61700 9.44180 5038 ft 258 kts 339°
2026-05-01 13:09 0.63382 9.43483 4734 ft 268 kts 339°
2026-05-01 13:09 0.65119 9.42760 4252 ft 274 kts 336°
2026-05-01 13:09 0.66695 9.41637 3749 ft 281 kts 311°
2026-05-01 13:09 0.67610 9.39931 3274 ft 285 kts 284°
2026-05-01 13:10 0.67675 9.37950 2797 ft 286 kts 258°
2026-05-01 13:10 0.66891 9.36194 2605 ft 276 kts 237°
2026-05-01 13:10 0.65646 9.34773 2409 ft 267 kts 215°
2026-05-01 13:10 0.63953 9.34101 2213 ft 259 kts 186°
2026-05-01 13:11 0.62198 9.34226 2032 ft 251 kts 168°
2026-05-01 13:11 0.60510 9.34678 1933 ft 242 kts 163°
2026-05-01 13:11 0.58957 9.35208 1889 ft 230 kts 160°
2026-05-01 13:11 0.57499 9.35781 1831 ft 220 kts 158°
2026-05-01 13:12 0.56137 9.36365 1821 ft 199 kts 156°
2026-05-01 13:12 0.54922 9.36917 1528 ft 190 kts 155°
2026-05-01 13:12 0.53759 9.37460 1269 ft 178 kts 155°
2026-05-01 13:12 0.52689 9.37959 1144 ft 155 kts 155°
2026-05-01 13:13 0.51806 9.38375 1042 ft 132 kts 155°
2026-05-01 13:13 0.50985 9.38762 832 ft 130 kts 155°
2026-05-01 13:13 0.50181 9.39150 712 ft 129 kts 155°
2026-05-01 13:13 0.49359 9.39546 603 ft 130 kts 156°
2026-05-01 13:14 0.48535 9.39934 413 ft 130 kts 155°
2026-05-01 13:14 0.47724 9.40324 223 ft 128 kts 154°
2026-05-01 13:14 0.46924 9.40713 74 ft 123 kts 154°
2026-05-01 13:14 0.46265 9.41024 57 ft 69 kts 154°
2026-05-01 13:15 0.45978 9.41166 54 ft 19 kts 152°
2026-05-01 13:15 0.45912 9.41199 54 ft 10 kts 151°
2026-05-01 13:15 0.45833 9.41194 54 ft 17 kts 241°
2026-05-01 13:15 0.45809 9.41155 54 ft 2 kts 233°
2026-05-01 13:16 0.45806 9.41120 54 ft 8 kts 286°
2026-05-01 13:16 0.45799 9.41087 54 ft 4 kts 208°
2026-05-01 13:16 0.45772 9.41078 54 ft 6 kts 209°
2026-05-01 13:17 0.45756 9.41072 54 ft 0 kts 200°